FW4626 Weather Reports


time (UTC)temp
C
wind
direction
speed
KPH
gust
KPH
rain 1hr
cm
rain 24hr
cm
rain mn
cm
humidity
%
barometer
mb
20260504231541 14 198 9.7 19.3 0.00 0.00 0.00 56 1014.1
20260504230029 14 203 8.0 22.5 0.00 0.00 0.00 57 1014.1
20260504224528 13 206 6.4 17.7 0.00 0.00 0.00 59 1014.0
20260504223025 14 164 6.4 16.1 0.00 0.00 0.00 59 1014.2
20260504221524 15 210 9.7 17.7 0.00 0.00 0.00 56 1014.0
20260504220020 15 203 1.6 16.1 0.00 0.00 0.00 54 1014.1
20260504214518 15 202 8.0 19.3 0.00 0.00 0.00 52 1014.3
20260504213013 15 207 3.2 11.3 0.00 0.00 0.00 51 1014.5
20260504211508 16 213 3.2 14.5 0.00 0.00 0.00 51 1014.7
20260504210010 16 226 6.4 14.5 0.00 0.00 0.00 52 1014.8
20260504204505 16 208 6.4 12.9 0.00 0.00 0.00 51 1015.0
20260504203100 16 176 8.0 17.7 0.00 0.00 0.00 49 1015.1
20260504201559 17 188 8.0 16.1 0.00 0.00 0.00 50 1015.2
20260504200057 16 205 4.8 17.7 0.00 0.00 0.00 53 1015.5
20260504194553 17 265 4.8 16.1 0.00 0.00 0.00 53 1015.7
20260504193047 16 184 6.4 16.1 0.00 0.00 0.00 57 1015.8
20260504191545 16 195 6.4 14.5 0.00 0.00 0.00 57 1016.2
20260504190047 15 184 1.6 14.5 0.00 0.00 0.00 61 1016.2
20260504184534 15 37 6.4 11.3 0.00 0.00 0.00 62 1016.4
20260504183032 14 212 8.0 17.7 0.00 0.00 0.00 62 1016.7
20260504181527 13 221 6.4 19.3 0.00 0.00 0.00 64 1016.7
20260504180023 13 218 4.8 17.7 0.00 0.00 0.00 65 1016.9
20260504174520 12 199 12.9 24.1 0.00 0.00 0.00 65 1017.0
20260504173016 12 220 4.8 19.3 0.00 0.00 0.00 66 1017.2
20260504171532 12 46 16.1 30.6 0.00 0.00 0.00 66 1017.1
20260504081521 4 14 16.1 37.0 0.00 0.00 0.00 79 1017.9
20260504044526 5 264 12.9 27.4 0.00 0.00 0.00 53 1019.5
20260504043019 5 275 16.1 27.4 0.00 0.00 0.00 53 1019.3
20260504041515 5 257 14.5 24.1 0.00 0.00 0.00 54 1019.3
20260504040012 5 354 16.1 27.4 0.00 0.00 0.00 55 1019.4
20260504034508 5 262 16.1 25.7 0.00 0.00 0.00 51 1019.3
20260504033007 5 219 3.2 11.3 0.00 0.00 0.00 49 1019.1
20260504031505 5 221 8.0 17.7 0.00 0.00 0.00 50 1019.1
20260504030003 5 240 9.7 17.7 0.00 0.00 0.00 56 1019.2
20260504024505 5 299 8.0 22.5 0.00 0.00 0.00 59 1019.4
20260504023100 5 251 14.5 25.7 0.00 0.00 0.00 62 1019.6
20260504021557 5 262 14.5 24.1 0.00 0.00 0.00 57 1019.7
20260504020057 5 264 12.9 27.4 0.00 0.00 0.00 54 1019.6
20260504014603 5 238 12.9 22.5 0.00 0.00 0.00 52 1019.4
20260504013054 5 252 6.4 14.5 0.00 0.00 0.00 52 1019.3
20260504011558 6 268 9.7 20.9 0.00 0.00 0.00 50 1019.3
20260504010056 5 262 8.0 17.7 0.00 0.00 0.00 54 1019.2
20260504004547 5 274 8.0 14.5 0.00 0.00 0.00 55 1019.0
20260504003050 5 263 8.0 12.9 0.00 0.00 0.00 54 1019.0
20260504001543 6 257 3.2 14.5 0.00 0.00 0.00 52 1018.9
20260504000038 6 18 4.8 12.9 0.00 0.00 0.00 50 1018.9
20260503234545 7 348 3.2 11.3 0.00 0.00 0.00 48 1019.0
20260503233034 8 25 3.2 12.9 0.00 0.00 0.00 48 1019.0